Regional Weather Roundup
Issued by NWS Charleston, SC

Current Version | Previous Version | Graphics & Text | Print | Product List | Glossary On
Versions: 1 2 3 4 5 6 7 8 9 10 11 12 13 14 15 16 17 18 19 20 21 22 23 24 25 26 27 28 29 30 31 32 33 34 35 36 37 38 39 40 41 42 43 44 45 46 47 48 49 50
000 ASUS42 KCHS 010625 RWRCHS REGIONAL WEATHER ROUNDUP NATIONAL WEATHER SERVICE CHARLESTON SC 200 AM EDT FRI AUG 01 2014 NOTE: "FAIR" INDICATES FEW OR NO CLOUDS BELOW 12,000 FEET WITH NO SIGNIFICANT WEATHER AND/OR OBSTRUCTIONS TO VISIBILITY. NOT ALL STATIONS ARE QUALITY CONTROLLED BY THE NATIONAL WEATHER SERVICE. USE DATA WITH CAUTION...ESPECIALLY DEWPOINT OBSERVATIONS. SCZ027-030-031-034>040-042>050-010700- ...SOUTH CAROLINA... CITY SKY/WX TMP DP RH WIND PRES REMARKS N CHARLESTON MOCLDY 75 72 90 NE5 30.01F 6HR MIN TEMP: 75; 6HR MAX TEMP: 77; 6HR PCP: 0.01; WATERFRONT PRK N/A 79 N/A N/A NW7 N/A FORT JOHNSON NOT AVBL MOUNT PLEASANT FAIR 73 73 100 CALM 30.01F FOG JOHNS ISLAND PTCLDY 75 72 88 CALM 30.01S HAZE PINOPOLIS N/A 75 72 88 E6 29.96F MONCKS CORNER NOT AVBL SUMMERVILLE FAIR 70 70 100 CALM 30.02F BEAUFORT MCAS MOCLDY 75 73 93 CALM 30.00F 6HR MIN TEMP: 75; 6HR MAX TEMP: 80; BEAUFORT ARPT MOCLDY 77 77 100 CALM 29.99F HILTON HEAD IS PTCLDY 77 75 94 CALM 30.00F GEORGETOWN NOT AVBL WALTERBORO CLOUDY 73 N/A N/A NE3 30.02F FOG ORANGEBURG CLOUDY 72 69 90 N5 30.04S 6HR MIN TEMP: 72; 6HR MAX TEMP: 76; BARNWELL CLOUDY 73 70 88 NE3 30.04S AIKEN CLOUDY 70 70 100 N5 30.08F MANNING CLOUDY 73 N/A N/A CALM 30.03S KINGSTREE NOT AVBL COLUMBIA CLOUDY 74 67 78 E6 30.04F 6HR MIN TEMP: 73; 6HR MAX TEMP: 74; 6HR PCP: TRACE; SUMTER CLOUDY 72 72 100 NE5 30.03F 6HR MIN TEMP: 69; 6HR MAX TEMP: 71; 6HR PCP: TRACE; FLORENCE CLOUDY 73 71 93 E7 30.05F 6HR MIN TEMP: 73; 6HR MAX TEMP: 76; 6HR PCP: 0.02; MYRTLE BEACH CLOUDY 77 72 83 NE8 30.02F N MYRTLE BEACH CLOUDY 81 74 79 E12 30.04F 6HR MIN TEMP: 81; 6HR MAX TEMP: 82; 6HR PCP: TRACE; $$ GAZ063-065-086>088-099>101-113>116-118-119-134-136>141-150-010700- ...GEORGIA... CITY SKY/WX TMP DP RH WIND PRES REMARKS SAVANNAH ARPT PTCLDY 76 74 93 N3 30.00F 6HR MIN TEMP: 76; 6HR MAX TEMP: 80; HUNTER AAF PTCLDY 76 73 90 VRB1 29.97 6HR MIN TEMP: 76; 6HR MAX TEMP: 82; 6HR PCP: TRACE; FORT STEWART CLEAR 73 71 95 CALM 29.98 6HR MIN TEMP: 73; 6HR MAX TEMP: 79; STATESBORO NOT AVBL SYLVANIA CLOUDY 74 74 100 E5 30.02F FOG CLAXTON MOCLDY N/A N/A N/A CALM 30.00S HAZE THOMSON CLOUDY 73 73 100 NE6 30.09F AUGUSTA-BUSH CLOUDY 72 68 87 NE6 30.03F 6HR MIN TEMP: 72; 6HR MAX TEMP: 76; AUGUSTA-DANIEL CLOUDY 72 67 84 NE7 30.05F SWAINSBORO MOCLDY 77 77 100 E3 30.02S VIDALIA N/A 73 73 100 CALM 30.00S ALMA PTCLDY 72 69 90 CALM 29.98F 6HR MIN TEMP: 72; 6HR MAX TEMP: 89; WAYCROSS PTCLDY 78 74 90 E3 29.97S JESUP FAIR 75 73 94 CALM 29.98F BRUNSWICK PTCLDY 81 72 74 SE3 29.98F SAINT SIMONS PTCLDY 83 72 69 SE12 29.98F 6HR MIN TEMP: 83; 6HR MAX TEMP: 85; $$ SCZ027-028-034-036>038-045-046-048>050-GAZ119-141-010700- ...LAKE AND SUPPLEMENTAL COASTAL OBSERVATIONS... STATION/POSITION TIME TEMP WIND PRES WAVE SWELL AIR SEA DIR/SP/G HT/PER HT/PER/DIR (UTC) (F) (DEG/KT/KT) (MB) (FT/S) (FT/S/D) UPR LAKE MARION NOT AVBL WINYAH BAY 0600 79 90/ 8 1017.0S LAKE MURRAY 0500 71 20/ 1/ 4 1017.6F ACE BASIN NERRS 0600 73 CALM 1016.0S FORT PULASKI 0600 82 130/ 2/ 3 1015.6F SAPELO ISLAND 0600 82 140/ 4 1015.0F $$ ANZ835-935-AMZ111-154-330-350-352-354-374-450-454-472-010700- ...C-MAN AND BUOY OBSERVATIONS... STATION/POSITION TIME TEMP WIND PRES WAVE SWELL AIR SEA DIR/SP/G HT/PER HT/PER/DIR (UTC) (F) (DEG/KT/KT) (MB) (FT/S) (FT/S/D) FOLLY BEACH CMAN 0600 82 150/ 8/ 9 1016.4F BUOY 41004 0600 83 83 150/ 14/ 16 1015.2F 4/ 7 2/ 7 BUOY 41008 0600 84 85 140/ 12/ 16 1015.1F 3/ 5 2/ 50/ 6 5E ST. MARYS GA 0600 86 N/A 3/ 4 FRYING PAN BUOY NOT AVBL BUOY 41025 0600 VRB 14/ 17 1020.2F 4/ 6 2/120/ 8 CAPE LOOKOUT NC 0600 80 90/ 16/ 18 1019.2F BUOY 41002 0536 81 81 170/ 10/ 12 1019.4F 4/ 6 3/ 40/ 6 BUOY 41010 0600 83 84 140/ 14/ 16 1016.3F 3/ 4 2/ 80/ 8 BUOY 41012 NOT AVBL ST AUGUSTINE FL 0600 81 160/ 9/ 9 1015.5F CAPERS NEARSHORE 0500 82 170/ 8/ 12 N/A FRIPP NEARSHORE NOT AVBL $$

USA.gov is the U.S. government's official web portal to all federal, state and local government web resources and services.